TimeHST,TemperatureF,Dew PointF,Humidity,Sea Level PressureIn,VisibilityMPH,Wind Direction,Wind SpeedMPH,Gust SpeedMPH,PrecipitationIn,Events,Conditions,WindDirDegrees,DateUTC
12:23 AM,78.8,69.8,74,29.98,10.0,SSW,4.6,-,N/A,,Mostly Cloudy,210,2013-07-04 10:23:00
12:53 AM,78.1,68.0,71,29.97,10.0,SSW,4.6,-,N/A,,Mostly Cloudy,200,2013-07-04 10:53:00
1:41 AM,78.8,68.0,69,29.96,10.0,Calm,Calm,-,N/A,,Mostly Cloudy,0,2013-07-04 11:41:00
1:53 AM,78.1,69.1,74,29.96,10.0,Calm,Calm,-,N/A,,Mostly Cloudy,0,2013-07-04 11:53:00
2:53 AM,78.1,68.0,71,29.95,10.0,Calm,Calm,-,N/A,,Mostly Cloudy,0,2013-07-04 12:53:00
3:53 AM,77.0,66.9,71,29.95,10.0,Calm,Calm,-,N/A,,Partly Cloudy,0,2013-07-04 13:53:00
4:53 AM,75.9,66.9,74,29.95,10.0,East,3.5,-,N/A,,Clear,80,2013-07-04 14:53:00
5:53 AM,77.0,66.0,69,29.96,10.0,ENE,3.5,-,N/A,,Overcast,70,2013-07-04 15:53:00
6:53 AM,78.1,66.9,68,29.98,10.0,NNE,3.5,-,N/A,,Mostly Cloudy,20,2013-07-04 16:53:00
7:53 AM,79.0,70.0,74,29.99,10.0,NW,6.9,-,N/A,,Clear,310,2013-07-04 17:53:00
8:53 AM,80.1,68.0,67,30.00,10.0,WNW,6.9,-,N/A,,Clear,300,2013-07-04 18:53:00
9:53 AM,81.0,69.1,67,30.00,10.0,WNW,9.2,-,N/A,,Clear,290,2013-07-04 19:53:00
10:53 AM,82.0,69.1,65,29.99,10.0,WNW,11.5,-,N/A,,Clear,290,2013-07-04 20:53:00
11:53 AM,84.9,70.0,61,29.99,10.0,West,11.5,-,N/A,,Clear,270,2013-07-04 21:53:00
12:53 PM,84.9,69.1,59,29.98,10.0,West,12.7,-,N/A,,Clear,270,2013-07-04 22:53:00
1:53 PM,82.9,69.1,63,29.97,10.0,West,9.2,-,N/A,,Mostly Cloudy,280,2013-07-04 23:53:00
2:53 PM,84.0,69.1,61,29.96,10.0,WSW,10.4,-,N/A,,Mostly Cloudy,240,2013-07-05 00:53:00
3:53 PM,84.0,68.0,58,29.96,10.0,SW,9.2,-,N/A,,Partly Cloudy,230,2013-07-05 01:53:00
4:53 PM,82.9,68.0,60,29.96,10.0,WSW,6.9,-,N/A,,Mostly Cloudy,250,2013-07-05 02:53:00
5:53 PM,82.0,68.0,62,29.96,10.0,SW,8.1,-,N/A,,Overcast,230,2013-07-05 03:53:00
6:53 PM,81.0,68.0,65,29.98,10.0,SSW,6.9,-,N/A,,Clear,200,2013-07-05 04:53:00
7:53 PM,80.1,69.1,69,29.99,10.0,South,9.2,-,N/A,,Overcast,180,2013-07-05 05:53:00
8:53 PM,80.1,69.1,69,30.00,10.0,South,8.1,-,N/A,,Overcast,180,2013-07-05 06:53:00
9:53 PM,80.1,69.1,69,30.01,10.0,SSE,9.2,-,N/A,,Overcast,160,2013-07-05 07:53:00
10:53 PM,78.1,69.1,74,30.02,10.0,SE,9.2,-,N/A,,Clear,130,2013-07-05 08:53:00
11:53 PM,77.0,68.0,74,30.01,10.0,ESE,6.9,-,N/A,,Clear,110,2013-07-05 09:53:00